TimeEDT,TemperatureF,Dew PointF,Humidity,Sea Level PressureIn,VisibilityMPH,Wind Direction,Wind SpeedMPH,Gust SpeedMPH,PrecipitationIn,Events,Conditions,WindDirDegrees,DateUTC
12:53 AM,61.0,52.0,72,29.97,10.0,WNW,9.2,-,N/A,,Clear,300,2013-08-04 04:53:00
1:53 AM,59.0,52.0,78,29.97,10.0,WNW,9.2,-,N/A,,Clear,290,2013-08-04 05:53:00
2:53 AM,59.0,52.0,78,29.97,10.0,WNW,6.9,-,N/A,,Clear,290,2013-08-04 06:53:00
3:53 AM,57.9,53.1,84,29.97,10.0,WNW,8.1,-,N/A,,Clear,290,2013-08-04 07:53:00
4:53 AM,55.9,53.1,90,29.97,10.0,WNW,6.9,-,N/A,,Clear,290,2013-08-04 08:53:00
5:53 AM,57.9,54.0,87,29.98,10.0,WNW,8.1,-,N/A,,Mostly Cloudy,300,2013-08-04 09:53:00
6:53 AM,59.0,55.0,87,29.98,10.0,NW,9.2,-,N/A,,Clear,310,2013-08-04 10:53:00
7:04 AM,60.8,55.4,82,29.99,10.0,WNW,10.4,-,N/A,,Scattered Clouds,300,2013-08-04 11:04:00
7:53 AM,62.1,55.9,80,30.00,10.0,NW,9.2,-,N/A,,Mostly Cloudy,320,2013-08-04 11:53:00
8:53 AM,63.0,55.9,78,30.01,10.0,NW,12.7,-,N/A,,Mostly Cloudy,310,2013-08-04 12:53:00
9:53 AM,64.0,55.0,73,30.03,10.0,NW,10.4,-,N/A,,Mostly Cloudy,320,2013-08-04 13:53:00
10:37 AM,64.4,55.4,73,30.03,10.0,NW,9.2,-,0.00,,Mostly Cloudy,320,2013-08-04 14:37:00
10:53 AM,64.9,55.9,73,30.04,10.0,NNW,10.4,-,0.00,,Mostly Cloudy,330,2013-08-04 14:53:00
11:53 AM,66.9,54.0,63,30.04,10.0,NNW,11.5,-,N/A,,Scattered Clouds,340,2013-08-04 15:53:00
12:53 PM,69.1,53.1,57,30.04,10.0,NW,13.8,20.7,N/A,,Scattered Clouds,310,2013-08-04 16:53:00
1:53 PM,70.0,53.1,55,30.04,10.0,NW,12.7,-,N/A,,Scattered Clouds,310,2013-08-04 17:53:00
2:53 PM,71.1,53.1,53,30.04,10.0,NNW,12.7,-,N/A,,Mostly Cloudy,330,2013-08-04 18:53:00
3:53 PM,72.0,53.1,51,30.04,10.0,NW,13.8,-,N/A,,Scattered Clouds,320,2013-08-04 19:53:00
4:53 PM,71.1,50.0,47,30.03,10.0,NW,10.4,21.9,N/A,,Scattered Clouds,320,2013-08-04 20:53:00
5:53 PM,71.1,50.0,47,30.03,10.0,NNW,9.2,-,N/A,,Scattered Clouds,340,2013-08-04 21:53:00
6:53 PM,69.1,51.1,53,30.04,10.0,North,16.1,-,N/A,,Scattered Clouds,350,2013-08-04 22:53:00
7:53 PM,66.0,46.0,48,30.06,10.0,North,8.1,-,N/A,,Scattered Clouds,350,2013-08-04 23:53:00
8:53 PM,63.0,46.0,54,30.06,10.0,NNW,5.8,-,N/A,,Scattered Clouds,340,2013-08-05 00:53:00
9:53 PM,60.1,46.9,62,30.08,10.0,NNW,5.8,-,N/A,,Scattered Clouds,330,2013-08-05 01:53:00
10:53 PM,59.0,46.9,64,30.08,10.0,North,5.8,-,N/A,,Partly Cloudy,350,2013-08-05 02:53:00
11:53 PM,59.0,46.9,64,30.09,10.0,NNW,3.5,-,N/A,,Clear,330,2013-08-05 03:53:00